ヴァイサラ-オテルマ彗星

139P/Vaisala-Oterma (2017)

English version
Home page
Updated on November 7, 2017

---------------------------------------------------------------------

・ プロフィール

・ 写真集

・ 軌道要素

Epoch 2017 Nov. 23.0 TT = JDT 2458080.5
T 2017 Dec. 10.83127 TT                                 MPCW
q   3.4144134            (2000.0)            P               Q
n   0.10221914     Peri.  166.06711     +0.66537942     -0.74563629
a   4.5301707      Node   242.20789     +0.68094745     +0.62600704
e   0.2462948      Incl.    2.33292     +0.30590977     +0.22834559
P   9.64
From 302 observations 1939 Oct. 7-2016 Oct. 30, mean residual 0".8.

・ 光度変化

        m1 = 11.0 + 5 logΔ + 10.0 log r

---------------------------------------------------------------------

軌道要素はM.P.E.C. 2016-V116に掲載されたものです。
光度グラフはComet for Windowsで作成したものです。

---------------------------------------------------------------------

Copyright(C) Seiichi Yoshida (comet@aerith.net). All rights reserved.